Location: Newark
(49.9833°N, 3.7472°E)
Time: 11:11:39
(UTC+00:00)

N. Korean satellite - Pass Details

Date: 29 September 2019
Orbit: 455 x 508 km, 97.2° (Epoch: 21 October)

Event Time Altitude Azimuth Distance (km) Brightness Sun altitude
Rises 18:04:11 0° 217° (SW) 2,506 10.7 -6.6°
Reaches altitude 10° 18:07:40 10° 255° (WSW) 1,624 10.6 -7.1°
Maximum altitude 18:08:41 11° 272° (W) 1,563 10.9 -7.3°
Drops below altitude 10° 18:09:41 10° 288° (WNW) 1,622 10.8 -7.4°
Sets 18:13:10 0° 327° (NNW) 2,495 10.8 -8.0°
